Goodland, KS

9:08 PM MDT on July 29, 2016 (GMT -0600)
Renner-Goodland Municipal

Weather History for KGLD - March, 2014

Change the Weather History Date:

Wednesday, March 5, 2014

  Actual Average Record
Temperature  
Mean Temperature 41 °F 37 °F  
Max Temperature 51 °F 51 °F 81 °F (1916)
Min Temperature 30 °F 24 °F -15 °F (1948)
Degree Days  
Heating Degree Days 24 28  
Month to date heating degree days 198 141  
Since 1 July heating degree days 4742 4558  
Cooling Degree Days 0 0  
Month to date cooling degree days 0 0  
Year to date cooling degree days 0 0  
Moisture  
Dew Point 30 °F    
Average Humidity 75    
Maximum Humidity 100    
Minimum Humidity 50    
Precipitation  
Precipitation 0.02 in 0.03 in 0.41 in (1992)
Month to date precipitation 0.03 0.13  
Year to date precipitation 0.97 1.00  
Snow  
Snow T in 0.20 in - ()
Month to date snowfall 0.3 0.9  
Since 1 July snowfall 25.5 24.9  
Snow Depth 0.00 in    
Sea Level Pressure  
Sea Level Pressure 30.13 in    
Wind  
Wind Speed 11 mph (NNE)    
Max Wind Speed 22 mph    
Max Gust Speed 27 mph    
Visibility 9 miles    
Events Rain , Snow    
T = Trace of Precipitation, MM = Missing Value Source: NWS Daily Summary

Daily Weather History Graph

Daily Weather History Graph

Search for Another Location

Airport or City:

Trip Planner

Search our weather history database for the weather conditions in past years. The results will help you decide how hot, cold, wet, or windy it might be!

Date:

Astronomy

Mar. 05, 2014 Rise Set
Actual Time 6:13 AM MST 5:43 PM MST
Civil Twilight 5:46 AM MST 6:10 PM MST
Nautical Twilight 5:15 AM MST 6:41 PM MST
Astronomical Twilight 4:44 AM MST 7:12 PM MST
Moon 8:42 AM MST (3/5) 10:52 PM MST (3/5)
Length of Visible Light 12h 23m
Length of Day
11h 29m
Waxing Crescent, 24% of the Moon is Illuminated
Mar 5
Waxing Crescent
Mar 8
First Quarter
Mar 16
Full
Mar 23
Last Quarter
Mar 30
New

Hourly Weather History & Observations

Time (MST) Temp. Windchill Dew Point Humidity Pressure Visibility Wind Dir Wind Speed Gust Speed Precip Events Conditions
12:53 AM 32.0 °F 20.1 °F 27.0 °F 82% 30.00 in 10.0 mi North 19.6 mph - N/A   Overcast
1:53 AM 32.0 °F 20.8 °F 28.0 °F 85% 30.01 in 7.0 mi North 17.3 mph - 0.00 in Snow Light Snow
2:25 AM 30.9 °F 21.7 °F 28.9 °F 92% 30.05 in 8.0 mi North 11.5 mph - 0.01 in Rain Light Freezing Rain
2:53 AM 32.0 °F 21.6 °F 30.0 °F 92% 30.04 in 6.0 mi North 15.0 mph - 0.02 in Rain Light Freezing Rain
3:10 AM 32.0 °F 21.6 °F 30.0 °F 92% 30.07 in 6.0 mi North 15.0 mph - 0.00 in   Overcast
3:34 AM 32.0 °F 23.0 °F 30.9 °F 96% 30.07 in 6.0 mi North 11.5 mph - 0.00 in Rain Light Freezing Rain
3:42 AM 32.0 °F 23.6 °F 30.9 °F 96% 30.06 in 6.0 mi North 10.4 mph - 0.00 in Rain Light Freezing Rain
3:53 AM 32.0 °F 25.6 °F 30.9 °F 96% 30.03 in 8.0 mi North 6.9 mph - 0.00 in   Overcast
4:39 AM 32.0 °F 22.1 °F 30.9 °F 96% 30.07 in 7.0 mi North 13.8 mph - N/A   Overcast
4:53 AM 32.0 °F 22.1 °F 30.9 °F 96% 30.09 in 7.0 mi North 13.8 mph - N/A   Overcast
5:10 AM 32.0 °F 23.6 °F 30.9 °F 96% 30.09 in 8.0 mi North 10.4 mph - N/A   Overcast
5:44 AM 30.9 °F 22.2 °F 30.0 °F 96% 30.10 in 8.0 mi North 10.4 mph - N/A   Partly Cloudy
5:53 AM 30.0 °F 21.1 °F 28.9 °F 96% 30.12 in 9.0 mi North 10.4 mph - N/A   Partly Cloudy
6:17 AM 30.0 °F 21.7 °F 28.9 °F 96% 30.12 in 8.0 mi North 9.2 mph - N/A   Mostly Cloudy
6:31 AM 30.0 °F 21.7 °F 28.9 °F 96% 30.12 in 6.0 mi North 9.2 mph - N/A   Overcast
6:44 AM 30.0 °F 22.4 °F 28.9 °F 96% 30.12 in 6.0 mi North 8.1 mph - N/A   Overcast
6:53 AM 30.0 °F 21.7 °F 28.9 °F 96% 30.17 in 5.0 mi North 9.2 mph - N/A   Overcast
7:53 AM 30.9 °F 21.2 °F 30.0 °F 96% 30.19 in 5.0 mi North 12.7 mph - N/A   Overcast
8:53 AM 33.1 °F 23.9 °F 30.9 °F 92% 30.21 in 9.0 mi North 12.7 mph - N/A   Overcast
9:53 AM 34.0 °F 26.0 °F 33.1 °F 96% 30.22 in 10.0 mi NNW 10.4 mph - N/A   Overcast
10:43 AM 39.0 °F 34.0 °F 34.0 °F 82% 30.18 in 10.0 mi North 6.9 mph - N/A   Mostly Cloudy
10:53 AM 39.9 °F 33.9 °F 34.0 °F 79% 30.22 in 10.0 mi North 9.2 mph - N/A   Overcast
11:14 AM 41.0 °F 35.8 °F 34.0 °F 76% 30.18 in 10.0 mi NNE 8.1 mph - N/A   Mostly Cloudy
11:37 AM 43.0 °F 37.2 °F 34.0 °F 71% 30.17 in 10.0 mi North 10.4 mph - N/A   Scattered Clouds
11:53 AM 44.1 °F 39.5 °F 34.0 °F 68% 30.20 in 10.0 mi NNE 8.1 mph - N/A   Partly Cloudy
12:53 PM 46.9 °F - 33.1 °F 59% 30.16 in 10.0 mi NNE 8.1 mph - N/A   Clear
1:53 PM 48.0 °F - 32.0 °F 54% 30.15 in 10.0 mi East 4.6 mph - N/A   Clear
2:53 PM 48.9 °F - 30.0 °F 48% 30.14 in 10.0 mi East 4.6 mph - N/A   Clear
3:53 PM 48.9 °F - 30.0 °F 48% 30.13 in 10.0 mi ESE 8.1 mph - N/A   Clear
4:53 PM 46.0 °F 41.0 °F 30.9 °F 56% 30.14 in 10.0 mi ESE 10.4 mph - N/A   Clear
5:53 PM 37.0 °F 31.6 °F 28.9 °F 73% 30.18 in 10.0 mi SE 6.9 mph - N/A   Clear
6:53 PM 33.1 °F 24.9 °F 27.0 °F 78% 30.19 in 10.0 mi South 10.4 mph - N/A   Clear
7:53 PM 32.0 °F 21.6 °F 27.0 °F 82% 30.19 in 10.0 mi South 15.0 mph - N/A   Clear
8:53 PM 32.0 °F 21.6 °F 28.0 °F 85% 30.19 in 10.0 mi South 15.0 mph - N/A   Clear
9:53 PM 33.1 °F 23.9 °F 28.9 °F 85% 30.19 in 10.0 mi SSW 12.7 mph - N/A   Clear
10:53 PM 30.9 °F 20.2 °F 28.0 °F 89% 30.15 in 10.0 mi SSW 15.0 mph - N/A   Clear
11:53 PM 33.1 °F 23.4 °F 28.0 °F 82% 30.13 in 10.0 mi SSW 13.8 mph - N/A   Clear